This is the latest recevied weather packets stored in our database for station/object KC4MCQ-10. If no packets are shown the sender has not sent any weather packets the latest 10 day(s).
| Time | Temp. | Humidity | Pressure | Rain* | Wind** | Luminosity | Snow |
|---|---|---|---|---|---|---|---|
| 1787888505 | 25° C | 86% | 1016.9 hPa | 0.51 mm | 0.45 m/s, 143° | - | - |
| 1787887903 | 25° C | 86% | 1016.8 hPa | 0.51 mm | 0.45 m/s, 180° | - | - |
| 1787887301 | 25° C | 86% | 1016.8 hPa | 0.51 mm | 0.89 m/s, 184° | - | - |
| 1787886698 | 25° C | 87% | 1016.8 hPa | 0.51 mm | 0.89 m/s, 215° | - | - |
| 1787886096 | 25° C | 88% | 1016.7 hPa | 0.51 mm | 0 m/s | - | - |
| 1787885493 | 25° C | 88% | 1016.7 hPa | 0.51 mm | 0.45 m/s, 184° | - | - |
| 1787884890 | 25° C | 89% | 1016.6 hPa | 0.51 mm | 0.45 m/s, 183° | - | - |
| 1787884288 | 25° C | 89% | 1016.6 hPa | 0.51 mm | 0 m/s | - | - |
| 1787883686 | 25° C | 89% | 1016.5 hPa | 0.51 mm | 0 m/s | - | - |
| 1787883083 | 25° C | 88% | 1016.6 hPa | 0.51 mm | 0 m/s | - | - |
| 1787882481 | 25° C | 88% | 1016.4 hPa | 0.51 mm | 0.45 m/s, 183° | - | - |
| 1787881841 | 25.56° C | 87% | 1016.4 hPa | 0.51 mm | 0 m/s | - | - |
| 1787881239 | 25.56° C | 87% | 1016.4 hPa | 0.51 mm | 0.89 m/s, 183° | - | - |
| 1787880636 | 25.56° C | 86% | 1016.4 hPa | 0.51 mm | 0.89 m/s, 185° | - | - |
| 1787878182 | 25.56° C | 88% | 1016 hPa | 6.35 mm | 0.45 m/s, 150° | - | - |
| 1787877581 | 25.56° C | 87% | 1016 hPa | 6.35 mm | 0 m/s | - | - |
| 1787876979 | 26.11° C | 87% | 1015.7 hPa | 6.35 mm | 0 m/s | - | - |
| 1787876377 | 26.11° C | 86% | 1015.5 hPa | 6.35 mm | 0.89 m/s, 155° | - | - |
| 1787875777 | 26.67° C | 86% | 1015.5 hPa | 6.35 mm | 1.79 m/s, 147° | - | - |
| 1787875174 | 26.67° C | 86% | 1015.5 hPa | 7.62 mm | 0.45 m/s, 162° | - | - |
| 1787874574 | 27.22° C | 86% | 1015.6 hPa | 7.62 mm | 1.34 m/s, 167° | - | - |
| 1787873973 | 27.22° C | 86% | 1015.6 hPa | 7.62 mm | 0.89 m/s, 147° | - | - |
| 1787873348 | 27.78° C | 86% | 1015.6 hPa | 7.62 mm | 0.89 m/s, 146° | - | - |
| 1787872742 | 27.78° C | 86% | 1015.7 hPa | 7.62 mm | 0.45 m/s, 144° | - | - |
| 1787872136 | 27.78° C | 86% | 1015.6 hPa | 7.62 mm | 0.45 m/s, 144° | - | - |
* Rain latest 24 hours (hover to see other rain measurements)
** Current wind speed in m/s (hover to see current wind gust speed)